User: anonymous   Login
Location: Edoum�
(0.9447°N, 10.6482°E)
Time: 15:31:30
(UTC+00:00)
Language:

Genesis I - Orbit

View from above orbital plane
View from above orbital plane
View from above satellite
View from above satellite

Ground track
Ground track

The orbit data is extracted from the following two-line orbital elements,

1 29252U 06029A   20225.13835001  .00000139  00000-0  16588-4 0  9994
2 29252  64.5239 119.4514 0002311  94.6029 265.5358 15.18189502776636
Epoch (UTC): 12 August 2020 03:19:13
Eccentricity: 0.0002311
inclination: 64.5239°
perigee height: 510 km
apogee height: 513 km
right ascension of ascending node: 119.4514°
argument of perigee: 94.6029°
revolutions per day: 15.18189502
mean anomaly at epoch: 265.5358°
orbit number at epoch: 77663

The dashed part of the orbit path shows where the satellite is in the earth's shadow,  

DLR